| time (UTC) | temp C | wind direction | speed KPH | gust KPH | rain 1hr cm | rain 24hr cm | rain mn cm | humidity % | barometer mb |
| 20260504213040 | 22 | 304 | 3.2 | 12.9 | 0.00 | 0.00 | 0.00 | 43 | 1015.0 |
| 20260504211529 | 22 | 177 | 6.4 | 22.5 | 0.00 | 0.00 | 0.00 | 42 | 1015.2 |
| 20260504210008 | 22 | 319 | 3.2 | 19.3 | 0.00 | 0.00 | 0.00 | 1015.3 | |
| 20260504204532 | 22 | 244 | 1.6 | 19.3 | 0.00 | 0.00 | 0.00 | 46 | 1015.5 |
| 20260504203021 | 22 | 222 | 3.2 | 11.3 | 0.00 | 0.00 | 0.00 | 50 | 1015.7 |
| 20260504201522 | 22 | 317 | 4.8 | 16.1 | 0.00 | 0.00 | 0.00 | 48 | 1015.8 |
| 20260504200025 | 21 | 234 | 4.8 | 22.5 | 0.00 | 0.00 | 0.00 | 50 | 1015.9 |
| 20260504194510 | 21 | 304 | 3.2 | 17.7 | 0.00 | 0.00 | 0.00 | 53 | 1016.2 |
| 20260504193017 | 21 | 312 | 6.4 | 12.9 | 0.00 | 0.00 | 0.00 | 48 | 1016.4 |
| 20260504191518 | 21 | 273 | 8.0 | 16.1 | 0.00 | 0.00 | 0.00 | 48 | 1016.8 |
| 20260504190025 | 21 | 235 | 8.0 | 17.7 | 0.00 | 0.00 | 0.00 | 48 | 1017.0 |
| 20260504184528 | 21 | 335 | 6.4 | 12.9 | 0.00 | 0.00 | 0.00 | 54 | 1017.1 |
| 20260504183014 | 20 | 205 | 4.8 | 16.1 | 0.00 | 0.00 | 0.00 | 50 | 1017.1 |
| 20260504181511 | 19 | 258 | 8.0 | 16.1 | 0.00 | 0.00 | 0.00 | 52 | 1017.4 |
| 20260504180024 | 18 | 254 | 8.0 | 16.1 | 0.00 | 0.00 | 0.00 | 51 | 1017.5 |
| 20260504174507 | 18 | 252 | 4.8 | 12.9 | 0.00 | 0.00 | 0.00 | 54 | 1017.6 |
| 20260504173028 | 17 | 192 | 6.4 | 16.1 | 0.00 | 0.00 | 0.00 | 56 | 1017.8 |
| 20260504171516 | 17 | 255 | 4.8 | 12.9 | 0.00 | 0.00 | 0.00 | 54 | 1018.0 |
| 20260504081504 | 5 | 346 | 0.0 | 3.2 | 0.00 | 0.00 | 0.00 | 76 | 1018.8 |
| 20260504050009 | 6 | 349 | 0.0 | 3.2 | 0.00 | 0.00 | 0.00 | 71 | 1018.9 |
| 20260504044514 | 6 | 349 | 0.0 | 3.2 | 0.00 | 0.00 | 0.00 | 70 | 1018.9 |
| 20260504043021 | 7 | 349 | 0.0 | 3.2 | 0.00 | 0.00 | 0.00 | 68 | 1018.8 |
| 20260504041510 | 7 | 349 | 0.0 | 1.6 | 0.00 | 0.00 | 0.00 | 68 | 1018.9 |
| 20260504040014 | 7 | 349 | 0.0 | 3.2 | 0.00 | 0.00 | 0.00 | 67 | 1018.8 |
| 20260504034516 | 7 | 349 | 0.0 | 0.0 | 0.00 | 0.00 | 0.00 | 67 | 1019.0 |
| 20260504033012 | 7 | 349 | 0.0 | 3.2 | 0.00 | 0.00 | 0.00 | 68 | 1018.8 |
| 20260504031512 | 7 | 349 | 0.0 | 3.2 | 0.00 | 0.00 | 0.00 | 69 | 1018.8 |
| 20260504030012 | 7 | 349 | 0.0 | 3.2 | 0.00 | 0.00 | 0.00 | 65 | 1018.7 |
| 20260504024512 | 8 | 349 | 0.0 | 3.2 | 0.00 | 0.00 | 0.00 | 64 | 1018.8 |
| 20260504023018 | 8 | 349 | 0.0 | 3.2 | 0.00 | 0.00 | 0.00 | 67 | 1018.8 |
| 20260504021515 | 8 | 349 | 0.0 | 3.2 | 0.00 | 0.00 | 0.00 | 64 | 1018.7 |
| 20260504020021 | 8 | 349 | 0.0 | 3.2 | 0.00 | 0.00 | 0.00 | 62 | 1018.8 |
| 20260504014513 | 8 | 349 | 0.0 | 3.2 | 0.00 | 0.00 | 0.00 | 62 | 1018.5 |
| 20260504013016 | 8 | 349 | 0.0 | 3.2 | 0.00 | 0.00 | 0.00 | 64 | 1018.7 |
| 20260504011518 | 9 | 345 | 0.0 | 3.2 | 0.00 | 0.00 | 0.00 | 61 | 1018.7 |
| 20260504010018 | 10 | 342 | 0.0 | 3.2 | 0.00 | 0.00 | 0.00 | 58 | 1018.6 |
| 20260504004518 | 11 | 178 | 0.0 | 3.2 | 0.00 | 0.00 | 0.00 | 53 | 1018.4 |
| 20260504003017 | 12 | 174 | 0.0 | 3.2 | 0.00 | 0.00 | 0.00 | 48 | 1018.0 |
| 20260504001519 | 13 | 177 | 0.0 | 3.2 | 0.00 | 0.00 | 0.00 | 44 | 1017.9 |
| 20260504000004 | 13 | 317 | 1.6 | 4.8 | 0.00 | 0.00 | 0.00 | 41 | 1018.1 |
| 20260503234510 | 14 | 290 | 1.6 | 8.0 | 0.00 | 0.00 | 0.00 | 38 | 1018.0 |
| 20260503233015 | 15 | 170 | 3.2 | 9.7 | 0.00 | 0.00 | 0.00 | 36 | 1018.1 |
| 20260503231521 | 15 | 223 | 3.2 | 9.7 | 0.00 | 0.00 | 0.00 | 34 | 1018.2 |
| 20260503230004 | 15 | 221 | 3.2 | 12.9 | 0.00 | 0.00 | 0.00 | 37 | 1018.2 |
| 20260503224508 | 16 | 247 | 3.2 | 9.7 | 0.00 | 0.00 | 0.00 | 35 | 1018.2 |
| 20260503223012 | 16 | 209 | 4.8 | 11.3 | 0.00 | 0.00 | 0.00 | 35 | 1018.4 |
| 20260503221516 | 16 | 287 | 6.4 | 16.1 | 0.00 | 0.00 | 0.00 | 35 | 1018.6 |
| 20260503220024 | 16 | 233 | 3.2 | 20.9 | 0.00 | 0.00 | 0.00 | 37 | 1018.5 |
| 20260503214507 | 16 | 188 | 3.2 | 17.7 | 0.00 | 0.00 | 0.00 | 40 | 1018.7 |